sat.trackr.live / text

‹ back to catalog

STARLINK-30845

NORAD 58207 · 2023-170B

PAYLOAD ACTIVE UNKNOWN

§ Identity

Operator
Country
US
Launch date
2023-11-03
Launch site
AFETR
Launch vehicle
Mass (kg)
RCS (m²)

Purposes: comms

External: N2YO · Heavens-Above · Gunter

§ Orbital elements

Epoch: 2026-09-20T13:37:33.284640Z

Period
95.37 min
Inclination
42.9973°
Eccentricity
0.0004672
Mean motion
15.09869763 rev/d
Perigee alt
533.4 km
Apogee alt
539.8 km
Semi-major
6,914.7 km
B*
9.1908e-4
RAAN
210.2620°
Arg perigee
134.1473°
Mean anomaly
225.9756°
Rev number
15,967

§ Raw data

STARLINK-308451 58207U 23170B   26263.56774635  .00014954  00000+0  91908-3 0  99992 58207  42.9973 210.2620 0004672 134.1473 225.9756 15.09869763159671

JSON: /api/v1/satellites/58207 · /tle

For live sub-satellite position, see the globe view (requires WebGL).

§ Visibility from observer

Set your observer location to see the next 7 days of passes ≥ 10°. The values pass through the URL so the page stays shareable.

No JS? Fill the form by hand. The geolocation button needs JavaScript.